Location: Gudip?du
(17.0263°N, 80.8301°E)
Time: 00:31:44
(UTC+00:00)

COSMOS 2406 - Pass Details

Date: 03 August 2024
Orbit: 846 x 859 km, 71.0° (Epoch: 18 September)

Event Time Altitude Azimuth Distance (km) Brightness Sun altitude
Rises 14:52:48 0° 344° (NNW) 3,402 7.0 -23.8°
Reaches altitude 10° 14:55:14 10° 345° (NNW) 2,467 6.2 -24.3°
Maximum altitude 15:00:55 83° 73° (ENE) 858 3.1 -25.5°
Enters shadow 15:01:39 68° 146° (SE) 909 3.1 -25.7°
